User: anonymous   Login
Location: Unspecified
(0.0000°N, 0.0000°E)
Time: 13:38:52
(UTC+01:00)
Language:

GP-B - Orbit

View from above orbital plane
View from above orbital plane
View from above satellite
View from above satellite

Ground track
Ground track

The orbit data is extracted from the following two-line orbital elements,

1 28230U 04014A   16344.52009545  .00000179  00000-0  22313-4 0  9994
2 28230  89.8532 125.5708 0003240  98.1959 261.9631 14.78493995681079
Epoch (UTC): 09 December 2016 12:28:56
Eccentricity: 0.0003240
inclination: 89.8532°
perigee height: 632 km
apogee height: 636 km
right ascension of ascending node: 125.5708°
argument of perigee: 98.1959°
revolutions per day: 14.78493995
mean anomaly at epoch: 261.9631°
orbit number at epoch: 68107

The dashed part of the orbit path shows where the satellite is in the earth's shadow,  

DLR